www.pogodaiklimat.ru

Погода и климат >> Архив погоды >> Оман >> Ibra


ПОГОДА в Ibra

  • Прогноз погоды в Ibra
  • Монитор погоды в Ibra
  • Климат города

АРХИВ ПОГОДЫ в Ibra

Время (UTC), дата Ветер
(напр.,м/с)
 
Видим.   Явления Облачность Т
(С)
Тd
(С)
f
(%)
Тe
(С)
Тes
(С)
Комфортность P
(гПа)
Po
(гПа)
Тmin
(С)
Tmax
(С)
R
(мм)
R24
(мм)
S
(см)
18 9.08 ЮВ 3 н/о н/о +31.4 +19.6 50 +37 +37 очень
душно
998.5 944.6 +42.9
21 9.08 ЮВ 2 н/о н/о +29.4 +19.9 57 +36 +36 очень
душно
997.4 943.2
00 10.08 штиль 0 н/о н/о +27.5 +20.5 66 +34 +34 очень
душно
996.7 942.2
03 10.08 штиль 0 н/о н/о +26.5 +21.5 74 +34 +34 очень
душно
998.3 943.6
06 10.08 ЮВ 2 8000 м мгла 3/3 750 м
[Sc diur, vesp]
+32.8 +21.4 51 +41 +52 опасность
перегрева
998.6 943.6 +25.9
09 10.08 Ю 3 н/о н/о +39.4 +17.8 28 +42 +42 опасность
перегрева
993.8 941.4
12 10.08 С 5 8000 м гроза, ливневой дождь 6/4 750 м
[Cb calv Ac trans]
+37.4 +18.9 34 +42 +44 опасность
перегрева
995.1 941.0
15 10.08 Ю 5 5000 м пыль 5/3 750 м
[Sc Ac trans]
+37.5 +18.5 33 +42 +42 опасность
перегрева
995.9 941.8
18 10.08 ЮВ 3 н/о н/о +31.1 +20.9 55 +39 +39 очень
душно
997.9 944.0 +42.0
21 10.08 В 2 н/о н/о +29.1 +20.8 61 +36 +36 очень
душно
997.4 943.1
00 11.08 ЮВ 1 н/о н/о +26.9 +21.0 70 +34 +34 очень
душно
997.8 943.2
03 11.08 ЮВ 1 н/о н/о +26.9 +21.2 71 +34 +34 очень
душно
998.8 944.2
06 11.08 ЮВ 2 н/о н/о +32.0 +21.2 53 +40 +40 очень
душно
998.1 944.4 +26.3
09 11.08 ЮВ 4 9000 м мгла ясно +38.2 +19.1 33 +43 +58 опасность
перегрева
996.9 942.9
12 11.08 ЮВ 2 н/о н/о +41.4 +13.5 19 +41 +41 опасность
перегрева
993.3 941.2
15 11.08 Ю 6 9000 м мгла 4/1 750 м
[Sc Ac trans]
+38.1 +16.5 28 +40 +40 очень
душно
997.1 943.0
18 11.08 ЮВ 4 н/о н/о +30.3 +20.6 56 +37 +37 очень
душно
999.6 945.5 +42.6
21 11.08 ЮВ 2 н/о н/о +28.1 +21.3 67 +36 +36 очень
душно
999.6 945.1
00 12.08 В 1 н/о н/о +26.6 +21.3 73 +34 +34 очень
душно
999.4 944.7
03 12.08 штиль 0 н/о н/о +26.3 +21.2 74 +33 +33 очень
душно
999.9 945.1
06 12.08 ЮВ 3 9000 м мгла 3/0
[Ci fib]
+31.2 +21.7 57 +40 +53 опасность
солнечного
удара
1001.1 945.7 +27.8
09 12.08 ЮВ 3 9000 м мгла ясно +37.1 +19.1 35 +42 +59 опасность
перегрева
998.2 943.9
12 12.08 ЮВ 3 н/о н/о +40.4 +16.3 25 +42 +42 опасность
перегрева
994.4 942.1
15 12.08 ЮВ 6 9000 м мгла ясно +37.1 +16.7 30 +40 +40 очень
душно
997.3 943.0
18 12.08 ЮВ 4 н/о н/о +29.7 +20.5 58 +37 +37 очень
душно
1000.2 945.9 +41.1
21 12.08 В 2 н/о н/о +26.7 +21.1 71 +34 +34 очень
душно
999.8 945.0
00 13.08 ЮВ 2 н/о н/о +25.1 +21.3 79 +32 +32 очень
душно
999.2 944.2
03 13.08 Ю 1 н/о н/о +25.1 +21.4 80 +32 +32 очень
душно
1000.8 944.9
06 13.08 ЮВ 1 9000 м мгла ясно +30.1 +21.5 60 +38 +57 опасность
солнечного
удара
1001.5 945.9 +24.4
09 13.08 ЮВ 3 9000 м мгла 3/3 750 м
[Sc diur, vesp]
+37.9 +17.9 31 +41 +54 опасность
перегрева
998.2 944.0
12 13.08 Ю 4 н/о н/о +40.6 +14.0 21 +41 +41 опасность
перегрева
994.6 942.2
15 13.08 Ю 6 9000 м мгла 5/3 750 м
[Sc diur, vesp Ac trans]
+37.0 +16.6 30 +39 +39 очень
душно
998.3 943.9
18 13.08 ЮВ 4 н/о н/о +30.4 +20.6 56 +37 +37 очень
душно
1000.6 946.4 +42.2
21 13.08 ЮВ 3 н/о н/о +26.7 +21.5 73 +34 +34 очень
душно
1000.7 946.0
00 14.08 В 1 н/о н/о +25.1 +21.6 81 +32 +32 очень
душно
1000.9 945.8
03 14.08 ЮВ 2 н/о н/о +25.0 +21.6 81 +32 +32 очень
душно
1001.9 946.7
06 14.08 ЮВ 2 9000 м мгла ясно +29.7 +21.7 62 +38 +55 опасность
солнечного
удара
1003.2 947.4 +24.6
09 14.08 ЮВ 4 9000 м мгла 3/3 750 м
[Cu med, cong]
+36.8 +20.2 38 +43 +52 опасность
перегрева
1000.1 945.7
12 14.08 ЮВ 4 н/о н/о +37.8 +17.5 30 +41 +41 опасность
перегрева
997.3 944.4
15 14.08 Ю 5 9000 м мгла 5/4 750 м
[Sc Ac lent]
+35.6 +18.7 37 +40 +40 очень
душно
1000.3 945.6
18 14.08 ЮВ 5 н/о н/о +28.6 +21.5 65 +36 +36 очень
душно
1002.7 948.1 +39.4
21 14.08 ЮВ 4 н/о н/о +25.3 +22.0 82 +33 +33 очень
душно
1003.0 947.9
00 15.08 ЮВ 3 н/о н/о +24.1 +21.8 87 +31 +31 очень
душно
1003.0 947.6
03 15.08 ЮВ 3 н/о н/о +24.2 +21.8 86 +31 +31 очень
душно
1004.4 949.0
06 15.08 Ю 2 9000 м мгла ясно +27.1 +21.9 73 +35 +52 опасность
солнечного
удара
1005.6 949.2 +24.0
09 15.08 Ю 4 9000 м мгла 3/3 750 м
[Cu hum]
+33.5 +20.3 46 +40 +51 опасность
солнечного
удара
1002.1 947.0
12 15.08 Ю 5 н/о н/о +35.7 +18.7 37 +40 +40 очень
душно
999.0 945.8
15 15.08 Ю 5 9000 м мгла 4/3 750 м
[Sc Ac trans]
+33.4 +19.5 44 +39 +39 очень
душно
1002.1 947.0
18 15.08 Ю 4 н/о н/о +28.3 +21.0 65 +36 +36 очень
душно
1003.7 949.0 +36.7
21 15.08 ЮВ 3 н/о н/о +25.5 +21.5 79 +33 +33 очень
душно
1003.8 948.6
00 16.08 ЮВ 2 н/о н/о +24.0 +21.6 86 +31 +31 очень
душно
1003.6 948.1
03 16.08 ЮВ 2 н/о н/о +24.1 +21.2 84 +30 +30 очень
душно
1005.0 949.5
06 16.08 ЮВ 3 9000 м мгла ясно +28.3 +20.9 64 +35 +49 очень
душно
1006.3 950.1 +23.7
09 16.08 ЮВ 3 9000 м мгла 3/3 750 м
[Sc diur, vesp]
+33.1 +20.0 46 +39 +52 опасность
солнечного
удара
1003.0 947.8
12 16.08 Ю 4 9000 м мгла 4/3 750 м
[Sc diur, vesp Ac trans]
+35.8 +20.1 40 +42 +45 опасность
перегрева
1000.7 946.1
15 16.08 Ю 6 н/о н/о +33.4 +19.5 44 +39 +39 очень
душно
946.3

 

Местоположение метеостанции Ibra (Оман): широта 22.73 долгота 58.50 высота над уровнем моря 469 м.

В архиве по умолчанию представлена погода в Ibra за последнюю неделю. Архивные данные за месяц целиком и за предыдущие месяцы, начиная с января 2011 года, Вы можете получить, выбрав интересующий диапазон дат из раскрывающегося списка и нажав кнопку "Ввод!".

Внимание! Время в таблицах - всемирное. Для получения местного времени необходимо прибавить поправку, которая в Ibra равна 4 ч.

Смотрите также архив погоды в соседних городах и на ближайших метеорологических станциях:

Погода в Al Mudhaibi (Оман) (45 км)
Погода в Bidiya (Оман) (47 км)
Погода в Al Amerat (Оман) (86 км)
Погода в Samail (Оман) (86 км)
Погода в Qalhat (Оман) (93 км)
Погода в Saiq (Оман) (97 км)
Погода в Seeb (Оман) (97 км)
Погода в Mina Sultan Qaboos (Оман) (99 км)
Погода в Nizwa (Оман) (100 км)
Погода в Sur (Оман) (102 км)

Пояснения к столбцам:

Ветер - указаны скорость ветра в м/с - средняя за 10 мин, порывы в срок и между сроками (в фигурных скобках) и направление, откуда дует ветер: С - северный, СВ - северо-восточный, В - восточный, ЮВ - юго-восточный, Ю - южный, ЮЗ - юго-западный, З - западный, СЗ - северо-западный.
Видимость - горизонтальная дальность видимости в метрах или километрах. При видимости от 1 до 10 км при отсутствии осадков обычно наблюдается дымка, при ухудшении видимости до 1 км и менее - туман. В сухую погоду видимость может ухудшаться дымом, пылью или мглою.
Явления - указаны атмосферные явления, наблюдавшиеся в срок или в последний час перед сроком; фигурными скобками обозначены явления, наблюдавшиеся между сроками (за 1-3 часа до срока); квадратными скобками обозначены град или гололедные отложения с указанием их диаметра в мм.
Облачность - указаны через наклонную черту общая и нижняя облачность в баллах и высота нижней границы облаков в метрах; квадратными скобками обозначены формы облаков: Ci - перистые, Cs - перисто-слоистые, Cc - перисто-кучевые, Ac - высококучевые, As - высокослоистые, Sc - слоисто-кучевые, Ns - слоисто-дождевые, Cu - кучевые, Cb - кучево-дождевые. Подробнее классификацию облаков см. в Атласе облаков (PDF).
T - Температура воздуха - температура, измеренная на высоте 2 м над землей.
Td - Температура точки росы - температура, при понижении до которой содержащийся в воздухе водяной пар достигнет насыщения.
f - Относительная влажность воздуха - влажноcть воздуха, измеренная на высоте 2 м над землей.
Te - Эффективная температура - температура, которую ощущает одетый по сезону человек в тени. Характеристика душности погоды. При расчете учитывается влияние влажности воздуха и скорости ветра на теплоощущения человека.
Tes - Эффективная температура на солнце - температура, которую ощущает человек, с поправкой на солнечный нагрев. Характеристика знойности погоды. Зависит от высоты солнца над горизонтом, облачности и скорости ветра. Ночью, в пасмурную погоду, а также при ветре 12 м/с и более поправка равна нулю.
P - Атмосферное давление - приведенное к уровню моря атмосферное давление.
Po - Атмосферное давление - измеренное на уровне метеостанции атмосферное давление.
Tmin - Минимальная температура - минимум температуры воздуха на высоте 2 м над землей.
Tmax - Максимальная температура - максимум температуры воздуха на высоте 2 м над землей.
R - Количество осадков - Количество выпавших осадков за период времени, мм. При наведении курсора мыши на число - период времени, за который выпало указанное количество осадков.
R24 - Количество осадков - Количество выпавших осадков за 24 часа, мм.
S - Снежный покров - Высота снежного покрова, см. При наведении курсора мыши на число - состояние снежного покрова и степень покрытия местности в баллах.